Change the Weather History Date:

Sunday, November 11, 2012

  Actual Average Record
Temperature  
Mean Temperature 62 °F -  
Max Temperature 70 °F 55 °F 77 °F (1949)
Min Temperature 54 °F 35 °F 20 °F (1950)
Degree Days  
Heating Degree Days 3    
Growing Degree Days 12 (Base 50)    
Moisture  
Dew Point 47 °F    
Average Humidity 59    
Maximum Humidity 88    
Minimum Humidity 43    
Precipitation  
Precipitation 0.15 in - - ()
Sea Level Pressure  
Sea Level Pressure 30.09 in    
Wind  
Wind Speed 15 mph (South)    
Max Wind Speed 24 mph    
Max Gust Speed 36 mph    
Visibility 9 miles    
Events Rain    
Averages and records for this station are not official NWS values.
T = Trace of Precipitation, MM = Missing Value Source: NWS Daily Summary

Daily Weather History Graph

Daily Weather History Graph

Search for Another Location

Airport or City:

Trip Planner

Search our weather history database for the weather conditions in past years. The results will help you decide how hot, cold, wet, or windy it might be!

Date:

Astronomy

Nov. 11, 2012 Rise Set
Actual Time 6:25 AM CST 4:40 PM CST
Civil Twilight 5:57 AM CST 5:07 PM CST
Nautical Twilight 5:25 AM CST 5:39 PM CST
Astronomical Twilight 4:54 AM CST 6:10 PM CST
Moon 3:40 AM CST (11/11) 3:01 PM CST (11/11)
Length of Visible Light 11h 10m
Length of Day
10h 14m
Waning Crescent, 7% of the Moon is Illuminated
Nov 11
Waning Crescent
Nov 13
New
Nov 20
First Quarter
Nov 28
Full
Dec 6
Last Quarter

Hourly Weather History & Observations

Time (CST) Temp. Dew Point Humidity Pressure Visibility Wind Dir Wind Speed Gust Speed Precip Events Conditions
12:56 AM 54.0 °F 43.9 °F 69% 30.13 in 10.0 mi South 10.4 mph - N/A   Clear
1:56 AM 54.9 °F 43.0 °F 64% 30.14 in 10.0 mi South 10.4 mph - N/A   Clear
2:56 AM 54.9 °F 43.0 °F 64% 30.14 in 10.0 mi SSE 11.5 mph - N/A   Clear
3:56 AM 54.0 °F 43.0 °F 66% 30.16 in 10.0 mi South 9.2 mph - N/A   Clear
4:56 AM 54.0 °F 41.9 °F 64% 30.17 in 10.0 mi SSE 9.2 mph - N/A   Clear
5:56 AM 54.9 °F 41.9 °F 62% 30.17 in 10.0 mi South 11.5 mph - N/A   Clear
6:56 AM 56.8 °F 41.9 °F 57% 30.18 in 10.0 mi South 13.8 mph - N/A   Overcast
7:56 AM 57.9 °F 43.0 °F 58% 30.17 in 10.0 mi South 17.3 mph - N/A   Clear
8:56 AM 61.0 °F 45.0 °F 56% 30.18 in 10.0 mi South 17.3 mph 25.3 mph N/A   Clear
9:56 AM 64.9 °F 47.8 °F 54% 30.17 in 10.0 mi South 17.3 mph 23.0 mph N/A   Scattered Clouds
10:56 AM 68.0 °F 46.9 °F 47% 30.15 in 10.0 mi South 21.9 mph 25.3 mph N/A   Mostly Cloudy
11:56 AM 68.9 °F 46.9 °F 45% 30.12 in 10.0 mi South 19.6 mph 31.1 mph N/A   Mostly Cloudy
12:56 PM 68.0 °F 45.0 °F 43% 30.08 in 10.0 mi South 21.9 mph 27.6 mph N/A   Scattered Clouds
1:56 PM 68.9 °F 46.9 °F 45% 30.06 in 10.0 mi South 23.0 mph 27.6 mph N/A   Clear
2:56 PM 68.9 °F 47.8 °F 47% 30.04 in 10.0 mi South 17.3 mph 33.4 mph N/A   Clear
3:56 PM 70.0 °F 48.9 °F 47% 30.02 in 10.0 mi South 19.6 mph 32.2 mph N/A   Clear
4:56 PM 68.0 °F 45.9 °F 45% 30.01 in 10.0 mi South 18.4 mph 25.3 mph N/A   Clear
5:56 PM 66.9 °F 45.0 °F 45% 30.02 in 10.0 mi SSE 18.4 mph 25.3 mph N/A   Clear
6:56 PM 66.9 °F 48.9 °F 52% 30.01 in 10.0 mi South 21.9 mph 31.1 mph N/A   Clear
7:56 PM 66.9 °F 50.0 °F 54% 30.00 in 10.0 mi South 24.2 mph 35.7 mph N/A   Mostly Cloudy
8:56 PM 66.9 °F 50.0 °F 54% 30.03 in 10.0 mi South 23.0 mph 35.7 mph N/A   Mostly Cloudy
9:56 PM 59.9 °F 54.9 °F 83% 30.05 in 4.0 mi South 16.1 mph 25.3 mph 0.04 in Rain Rain
10:37 PM 59.0 °F 55.4 °F 88% 30.04 in 3.0 mi South 15.0 mph - 0.07 in Rain Rain
10:56 PM 59.9 °F 54.9 °F 83% 30.01 in 5.0 mi SSE 16.1 mph - 0.09 in Rain Light Rain
11:56 PM 59.9 °F 54.9 °F 83% 30.00 in 6.0 mi South 20.7 mph - 0.02 in Rain Light Rain